Sevilla, Spain

3:07 PM CET on February 11, 2016 (GMT +0100)
San Pablo

Weather History for LEZL - October, 2012

Change the Weather History Date:

Tuesday, October 2, 2012

  Actual Average Record
Temperature  
Mean Temperature 71 °F -  
Max Temperature 82 °F 75 °F 95 °F (2004)
Min Temperature 60 °F 56 °F 51 °F (1998)
Cooling Degree Days 6    
Growing Degree Days 21 (Base 50)    
Moisture  
Dew Point 58 °F    
Average Humidity 64    
Maximum Humidity 94    
Minimum Humidity 32    
Precipitation  
Precipitation 0.00 in - - ()
Sea Level Pressure  
Sea Level Pressure 30.12 in    
Wind  
Wind Speed 2 mph ()    
Max Wind Speed 8 mph    
Max Gust Speed -    
Visibility 5.1 miles    
Events      
Averages and records for this station are not official NWS values.
T = Trace of Precipitation, MM = Missing Value Source: Averaged Metar Reports

Daily Weather History Graph

Daily Weather History Graph

Search for Another Location

Airport or City:

Trip Planner

Search our weather history database for the weather conditions in past years. The results will help you decide how hot, cold, wet, or windy it might be!

Date:

Astronomy

Oct. 02, 2012 Rise Set
Actual Time 8:20 AM CEST 8:04 PM CEST
Civil Twilight 7:54 AM CEST 8:30 PM CEST
Nautical Twilight 7:23 AM CEST 9:01 PM CEST
Astronomical Twilight 6:53 AM CEST 9:31 PM CEST
Moon 9:13 PM CEST (10/2) 10:30 AM CEST (10/2)
Length of Visible Light 12h 36m
Length of Day
11h 44m
Waning Gibbous, 95% of the Moon is Illuminated
Oct 2
Waning Gibbous
Oct 8
Last Quarter
Oct 15
New
Oct 22
First Quarter
Oct 29
Full

Hourly Weather History & Observations

Time (CEST) Temp. Heat Index Dew Point Humidity Pressure Visibility Wind Dir Wind Speed Gust Speed Precip Events Conditions
12:00 AM 69.8 °F - 59.0 °F 68% 30.15 in - Variable 2.3 mph - N/A   Clear
12:30 AM 69.8 °F - 57.2 °F 64% 30.15 in - Variable 2.3 mph - N/A   Clear
1:00 AM 68.0 °F - 57.2 °F 68% 30.15 in - NW 3.5 mph - N/A   Clear
1:30 AM 68.0 °F - 57.2 °F 68% 30.15 in - Calm Calm - N/A   Clear
2:00 AM 68.0 °F - 57.2 °F 68% 30.15 in - Calm Calm - N/A   Clear
2:30 AM 64.4 °F - 59.0 °F 83% 30.12 in - Calm Calm - N/A   Clear
4:30 AM 64.4 °F - 60.8 °F 88% 30.12 in - South 3.5 mph - N/A   Clear
5:00 AM 64.4 °F - 60.8 °F 88% 30.12 in - Calm Calm - N/A   Clear
5:30 AM 62.6 °F - 60.8 °F 94% 30.12 in 5.0 mi SE 1.2 mph - N/A   Unknown
6:00 AM 62.6 °F - 60.8 °F 94% 30.12 in 5.0 mi Calm Calm - N/A   Unknown
6:30 AM 62.6 °F - 60.8 °F 94% 30.12 in - NNE 1.2 mph - N/A   Clear
7:30 AM 62.6 °F - 59.0 °F 88% 30.12 in 5.0 mi Calm Calm - N/A   Unknown
8:00 AM 62.6 °F - 60.8 °F 94% 30.12 in 5.0 mi Calm Calm - N/A   Unknown
8:30 AM 62.6 °F - 60.8 °F 94% 30.15 in 5.0 mi Variable 1.2 mph - N/A   Unknown
9:00 AM 60.8 °F - 59.0 °F 94% 30.15 in 5.0 mi NNE 3.5 mph - N/A   Unknown
9:30 AM 62.6 °F - 60.8 °F 94% 30.15 in 4.3 mi NE 2.3 mph - N/A   Unknown
10:00 AM 64.4 °F - 60.8 °F 88% 30.15 in 5.6 mi NE 4.6 mph - N/A   Unknown
10:30 AM 66.2 °F - 60.8 °F 83% 30.15 in 5.6 mi NE 4.6 mph - N/A   Unknown
11:00 AM 68.0 °F - 59.0 °F 73% 30.18 in - ENE 6.9 mph - N/A   Clear
11:30 AM 69.8 °F - 60.8 °F 73% 30.18 in - ENE 4.6 mph - N/A   Clear
12:00 PM 73.4 °F - 60.8 °F 65% 30.18 in - ENE 3.5 mph - N/A   Clear
12:30 PM 75.2 °F - 60.8 °F 61% 30.15 in - NE 1.2 mph - N/A   Clear
1:00 PM 77.0 °F - 60.8 °F 57% 30.15 in - Variable 2.3 mph - N/A   Clear
1:30 PM 77.0 °F - 59.0 °F 54% 30.15 in - NE 1.2 mph - N/A   Clear
2:00 PM 78.8 °F - 59.0 °F 51% 30.15 in - ENE 2.3 mph - N/A   Clear
2:30 PM 80.6 °F 80.8 °F 57.2 °F 45% 30.12 in - East 1.2 mph - N/A   Clear
3:00 PM 80.6 °F 80.8 °F 57.2 °F 45% 30.12 in - ESE 1.2 mph - N/A   Clear
3:30 PM 80.6 °F 80.5 °F 55.4 °F 42% 30.12 in - North 2.3 mph - N/A   Clear
4:00 PM 82.4 °F - 51.8 °F 35% 30.09 in - Calm Calm - N/A   Clear
5:00 PM 82.4 °F - 50.0 °F 32% 30.09 in - East 2.3 mph - N/A   Clear
5:30 PM 82.4 °F - 51.8 °F 35% 30.09 in - SSE 2.3 mph - N/A   Clear
6:00 PM 82.4 °F - 50.0 °F 32% 30.09 in - ENE 1.2 mph - N/A   Clear
7:00 PM 82.4 °F - 51.8 °F 35% 30.09 in - Variable 1.2 mph - N/A   Clear
7:30 PM 82.4 °F - 50.0 °F 32% 30.09 in - SE 2.3 mph - N/A   Clear
8:00 PM 80.6 °F 80.5 °F 55.4 °F 42% 30.06 in - SSE 1.2 mph - N/A   Clear
8:30 PM 78.8 °F - 51.8 °F 39% 30.06 in - Calm Calm - N/A   Clear
9:00 PM 75.2 °F - 59.0 °F 57% 30.09 in - SSE 1.2 mph - N/A   Clear
9:30 PM 75.2 °F - 59.0 °F 57% 30.09 in - Calm Calm - N/A   Clear
10:00 PM 73.4 °F - 60.8 °F 65% 30.09 in - Calm Calm - N/A   Clear
10:30 PM 75.2 °F - 57.2 °F 53% 30.09 in - Variable 1.2 mph - N/A   Clear
11:00 PM 73.4 °F - 55.4 °F 53% 30.09 in - WNW 8.1 mph - N/A   Clear
11:30 PM 71.6 °F - 55.4 °F 57% 30.09 in - NW 3.5 mph - N/A   Clear